This is the latest recevied weather packets stored in our database for station/object CE3MXM-12. If no packets are shown the sender has not sent any weather packets the latest 1 day(s).
| Time | Temp. | Humidity | Pressure | Rain* | Wind** | Luminosity | Snow |
|---|---|---|---|---|---|---|---|
| 1778026515 | 11.67° C | 93% | 1014.1 hPa | - | 0.45 m/s, 319° | - | - |
| 1778026215 | 11.67° C | 92% | 1014.3 hPa | - | 5.36 m/s, 317° | - | - |
| 1778025915 | 11.67° C | 92% | 1014.4 hPa | - | 0.89 m/s, 319° | - | - |
| 1778025615 | 11.67° C | 92% | 1014.4 hPa | - | 2.68 m/s, 311° | - | - |
| 1778025315 | 11.67° C | 92% | 1014.4 hPa | - | 9.39 m/s, 332° | - | - |
| 1778025014 | 11.67° C | 91% | 1014.4 hPa | - | 2.68 m/s, 335° | - | - |
| 1778024715 | 11.67° C | 91% | 1014.4 hPa | - | 5.36 m/s, 307° | - | - |
| 1778024414 | 12.22° C | 91% | 1014.2 hPa | - | 0.89 m/s, 316° | - | - |
| 1778024114 | 12.22° C | 91% | 1014.3 hPa | - | 0.45 m/s, 321° | - | - |
| 1778023814 | 12.22° C | 91% | 1014.1 hPa | - | 0.45 m/s, 323° | - | - |
| 1778023514 | 12.22° C | 91% | 1014.1 hPa | - | 8.05 m/s, 330° | - | - |
| 1778023214 | 12.22° C | 91% | 1014 hPa | - | 0 m/s | - | - |
| 1778022914 | 12.22° C | 91% | 1013.8 hPa | - | 2.68 m/s, 321° | - | - |
| 1778022614 | 12.22° C | 91% | 1014.2 hPa | - | 0.89 m/s, 16° | - | - |
| 1778022314 | 12.22° C | 91% | 1014.5 hPa | - | 4.02 m/s, 335° | - | - |
| 1778022014 | 12.22° C | 91% | 1014.1 hPa | - | 0 m/s | - | - |
| 1778021714 | 12.22° C | 91% | 1014.1 hPa | - | 0.45 m/s, 322° | - | - |
| 1778021414 | 12.22° C | 91% | 1014.1 hPa | - | 2.68 m/s, 315° | - | - |
| 1778021113 | 12.22° C | 91% | 1013.8 hPa | - | 4.92 m/s, 343° | - | - |
| 1778020813 | 12.22° C | 91% | 1013.8 hPa | - | 3.13 m/s, 320° | - | - |
| 1778020513 | 12.22° C | 91% | 1013.7 hPa | - | 2.68 m/s, 333° | - | - |
| 1778020216 | 12.22° C | 91% | 1014 hPa | - | 3.58 m/s, 306° | - | - |
| 1778019913 | 12.22° C | 91% | 1014 hPa | - | 4.47 m/s, 207° | - | - |
| 1778019613 | 12.78° C | 90% | 1013.9 hPa | - | 4.02 m/s, 295° | - | - |
| 1778019313 | 12.78° C | 91% | 1013.9 hPa | - | 2.24 m/s, 303° | - | - |
* Rain since midnight (hover to see other rain measurements)
** Current wind speed in m/s (hover to see current wind gust speed)